Wetbulb
72.67 73.13 72.72 73.26 73.73 74.07 74.22 74.09 74.17 74.34 73.84 73.42 73.30 72.58 73.82 75.41 75.05 74.39 72.72 72.26 72.21 71.66 72.16 71.96 72.06 71.62 71.25 71.10 69.65 66.63 68.41 69.30 67.15 68.24 69.31 69.21 70.44 71.46 72.83 73.33 73.34 71.65 71.12
72.61 71.61 72.99 72.73 72.98 72.83 73.42 74.38 74.22 73.67 74.42 74.57 74.54 75.16 75.36 75.16 74.91 74.59 72.91 72.94 72.16 70.84 70.97 71.41 71.26 73.08 72.02 71.66 71.94 70.52 70.27 68.61 68.37 66.93 69.81 71.11 70.75 71.27 72.58 72.24 73.46 73.10 70.92
71.82 71.86 71.14 71.58 71.93 71.88 71.26 72.32 73.05 73.18 74.52 75.92 75.52 75.32 75.35 75.34 75.19 75.48 74.83 73.80 72.05 70.66 70.36 71.68 71.73 71.94 71.33 72.07 71.57 71.25 71.18 72.15 70.45 68.79 69.09 70.75 71.25 71.72 71.89 71.48 71.61 72.28 72.10
70.39 70.70 69.38 68.86 69.63 69.79 70.57 70.20 72.32 74.07 75.10 75.66 75.99 75.21 75.82 75.97 75.80 75.34 75.45 73.31 72.99 72.89 72.14 72.12 72.93 72.53 72.48 72.30 72.00 71.92 71.88 70.19 69.78 69.02 66.65 67.80 68.77 70.99 71.21 69.85 69.68 71.08 71.23
73.69 73.96 74.11 74.85 74.66 74.46 74.38 74.02 74.59 74.42 74.94 74.70 74.66 75.46 75.81 74.93 75.94 74.23 74.93 74.17 70.66 68.70 71.10 72.84 72.88 73.51 72.30 71.55 72.17 71.84 69.96 69.17 68.90 68.77 68.21 67.87 67.87 68.49 69.24 70.24 69.62 70.66 70.35
72.45 72.11 71.58 72.61 72.63 73.46 73.62 73.52 73.83 74.07 73.53 73.70 73.30 73.62 73.66 75.36 72.57 70.77 71.34 71.78 68.25 65.50 64.73 72.29 72.36 72.06 71.92 71.00 70.66 70.79 71.98 69.55 68.57 67.46 66.18 66.88 68.66 67.26 68.84 69.87 69.99 68.52 67.44
69.58 69.02 69.06 69.76 70.22 71.04 72.13 71.82 71.59 71.63 71.60 71.53 71.44 72.61 73.35 73.79 69.37 68.75 69.54 71.31 66.05 65.06 66.85 71.68 71.38 69.91 68.97 72.73 69.71 69.69 68.90 68.98 69.37 67.25 67.22 68.87 68.61 69.35 66.61 68.73 69.94 69.28 68.82
66.08 66.38 66.60 66.77 66.78 67.35 67.53 67.50 68.20 70.79 71.08 70.62 71.19 72.43 72.51 73.55 69.75 67.55 69.09 69.78 71.11 71.21 71.70 71.85 71.26 69.46 68.81 72.37 69.79 69.22 69.65 69.89 68.94 70.18 70.78 71.38 71.50 71.14 68.48 70.12 69.87 69.32 69.48
64.59 64.88 65.26 65.68 65.17 65.34 64.76 65.37 66.57 66.93 67.04 68.45 69.79 69.75 70.41 71.42 68.56 65.62 66.90 68.34 68.84 69.07 69.88 70.59 71.26 72.09 69.66 66.68 68.52 69.55 70.68 70.63 68.77 66.32 67.59 69.00 69.20 69.02 71.11 71.27 69.93 68.14 67.65
62.85 63.62 64.24 64.24 62.85 61.55 62.55 63.11 63.70 64.21 64.87 66.17 66.72 67.50 67.97 69.11 68.19 66.32 64.65 68.48 68.52 68.91 69.03 69.70 68.06 68.65 65.54 64.61 68.72 69.73 69.24 70.05 70.94 71.73 68.72 67.58 68.06 70.61 68.45 71.45 71.31 68.60 67.80
63.27 62.77 63.56 63.01 62.57 63.00 62.39 62.43 62.70 62.67 62.82 62.73 63.56 64.73 65.59 65.57 65.59 61.94 62.20 66.07 67.44 67.10 67.42 67.49 66.39 60.58 59.48 59.74 59.37 64.57 67.80 68.99 69.75 70.12 70.86 71.21 70.66 70.61 71.46 71.70 71.57 70.31 68.45
61.55 62.46 62.57 62.83 62.92 63.56 60.64 61.27 62.84 62.91 62.20 61.78 59.59 58.58 61.00 60.55 59.04 58.34 58.54 59.82 63.11 64.46 65.14 65.88 64.83 59.17 57.60 57.90 59.02 61.46 62.14 63.51 65.97 65.65 65.79 66.57 68.41 70.27 71.24 71.93 71.67 71.95 72.08
61.87 61.76 62.20 62.94 62.87 63.42 61.15 60.79 61.24 59.06 57.45 56.54 56.23 55.36 55.65 57.69 59.76 57.50 56.98 58.00 59.32 61.04 63.71 62.83 59.98 56.85 56.22 59.56 61.59 60.88 60.77 62.80 63.84 64.32 65.12 65.60 67.08 69.84 70.99 71.32 71.47 71.57 71.94
61.38 61.37 62.09 61.61 60.77 61.16 61.31 60.90 58.15 57.41 56.35 56.28 55.41 55.10 55.73 56.54 57.02 55.49 54.86 55.47 57.79 58.76 58.67 56.81 57.88 58.26 57.86 58.36 60.60 62.83 64.18 65.27 66.35 66.29 66.54 67.26 68.34 69.00 68.84 69.90 68.95 69.27 68.63
59.98 59.98 58.06 58.64 58.54 58.30 58.93 57.48 58.27 56.78 55.74 55.40 55.95 56.45 55.56 55.44 56.34 51.47 50.22 52.40 51.28 51.44 49.85 52.21 54.78 55.87 57.50 60.35 64.04 64.67 65.08 66.28 66.69 67.33 67.30 67.78 67.82 68.61 68.30 69.02 68.39 67.73 66.95
59.00 58.22 57.30 57.23 57.39 57.32 57.00 56.86 56.93 54.64 53.84 51.70 50.68 51.02 55.90 54.60 51.59 49.11 44.91 44.48 45.40 47.30 50.38 52.00 54.30 55.66 56.21 57.54 60.45 62.59 63.23 64.71 65.83 67.29 66.99 67.08 66.54 66.26 66.57 66.65 67.66 67.39 67.31
58.23 57.40 57.73 56.98 57.20 57.36 58.36 56.12 55.50 58.31 55.77 52.20 49.67 48.81 48.16 48.80 47.16 45.23 43.39 44.31 45.24 47.63 52.80 54.31 55.83 58.15 59.55 60.76 60.53 61.20 61.49 63.92 64.94 65.15 65.70 66.13 65.71 66.11 64.58 65.78 65.78 65.09 64.18
56.40 57.29 57.81 56.79 57.43 57.75 57.19 56.87 57.73 56.51 57.82 58.83 54.38 53.93 52.92 48.81 46.99 43.88 44.89 48.03 55.77 53.45 56.19 57.54 59.39 60.01 60.51 60.73 61.60 60.42 61.47 62.06 61.72 62.57 64.04 65.25 65.72 65.43 64.95 63.89 64.87 64.13 63.80
57.01 56.51 57.66 58.21 56.70 56.22 57.78 58.95 57.61 58.11 55.89 56.35 54.70 52.77 53.02 50.66 50.63 48.57 48.52 57.27 57.05 57.25 57.40 57.19 58.94 59.69 59.51 59.04 59.29 59.71 59.88 60.49 59.79 59.61 59.69 60.21 62.78 62.22 62.84 62.92 63.13 58.50 60.91
56.75 58.43 57.87 56.44 55.98 56.44 56.14 55.92 55.75 56.23 57.02 54.21 52.39 51.74 52.31 53.45 53.83 53.96 55.28 55.10 54.33 54.25 54.26 53.39 55.04 57.34 58.69 58.86 59.14 58.32 57.85 57.86 58.37 58.48 59.06 58.78 58.80 59.97 59.18 60.03 59.62 59.86 58.75
57.51 55.69 57.84 55.76 53.47 53.96 54.57 53.72 52.67 51.70 51.44 52.41 51.28 50.42 48.39 50.73 52.70 52.31 52.16 52.75 53.73 53.80 52.88 52.28 52.11 52.78 53.22 54.53 55.17 55.46 55.91 56.96 56.73 56.83 57.75 58.67 58.38 58.32 58.88 60.35 60.03 59.32 58.40
55.01 54.69 53.98 52.68 52.92 52.16 51.80 52.09 51.22 50.83 50.87 50.81 50.78 51.16 48.71 51.20 50.82 51.04 51.49 51.87 53.36 53.78 54.28 53.42 52.56 51.91 53.08 53.83 53.72 52.61 51.58 51.15 50.84 51.33 53.28 55.83 57.50 57.57 57.29 59.20 59.64 59.67 59.00
54.05 54.62 53.59 52.26 52.23 53.19 51.07 51.68 51.51 51.11 50.71 50.77 51.62 51.29 50.61 50.29 49.62 49.22 50.14 51.17 51.58 52.20 54.18 54.36 54.45 53.17 52.79 52.44 51.86 50.50 48.73 47.87 47.84 47.39 48.23 52.10 54.43 56.33 56.99 56.33 56.23 57.40 58.74
55.18 54.04 53.88 52.40 51.30 50.95 50.95 51.59 50.57 49.52 51.40 51.40 50.65 50.69 50.07 49.76 50.30 50.13 50.27 50.70 50.68 51.22 51.42 52.52 54.52 53.97 52.72 52.17 51.91 50.25 47.82 44.20 42.62 44.22 46.19 46.94 49.47 52.47 56.03 56.57 56.79 56.09 55.75
53.00 52.51 52.27 52.10 51.80 51.42 51.60 51.52 51.46 52.20 52.18 51.47 51.16 51.16 50.59 50.25 49.93 50.93 50.76 50.91 50.74 50.82 50.88 50.76 49.88 49.80 51.85 49.58 44.10 42.05 37.42 34.29 38.21 37.32 41.67 45.03 47.05 49.99 52.87 56.05 56.63 57.47 57.51
53.79 53.77 52.65 52.32 53.22 51.88 51.73 51.59 51.66 51.53 50.68 51.39 51.36 51.13 50.19 50.18 50.75 51.32 51.38 51.17 50.45 50.36 50.51 49.90 49.11 48.72 46.61 43.82 41.19 36.94 31.96 32.87 35.69 32.61 35.57 42.45 49.10 52.33 54.49 54.77 55.73 55.63 55.75
MSLP
1009.84 1010.36 1010.98 1011.48 1011.78 1012.16 1012.47 1012.74 1012.95 1013.19 1013.36 1013.74 1013.94 1014.11 1013.92 1014.16 1014.42 1015.00 1015.34 1015.59 1015.69 1015.84 1016.02 1016.25 1016.35 1016.51 1016.77 1016.80 1016.85 1016.98 1016.95 1017.26 1017.34 1016.59 1016.49 1015.84 1015.81 1015.93 1016.40 1017.00 1017.49 1018.11 1018.46
1009.44 1010.09 1010.56 1010.94 1011.26 1011.62 1011.89 1012.00 1012.12 1012.41 1012.66 1012.71 1013.10 1013.27 1013.40 1013.61 1013.98 1014.28 1014.77 1015.04 1015.23 1015.43 1015.61 1015.89 1015.98 1016.11 1016.25 1016.37 1016.51 1016.70 1016.55 1016.65 1016.71 1016.50 1016.05 1015.85 1015.65 1015.40 1015.75 1016.47 1016.81 1017.33 1017.66
1009.33 1009.77 1010.04 1010.31 1010.67 1010.95 1011.18 1011.19 1011.27 1011.59 1011.75 1011.99 1012.25 1012.53 1012.81 1013.08 1013.49 1013.71 1013.89 1014.20 1014.52 1014.84 1015.18 1015.48 1015.46 1015.66 1015.83 1015.78 1015.89 1016.07 1015.99 1015.94 1016.03 1016.18 1016.03 1015.56 1015.62 1015.78 1016.04 1016.14 1016.39 1016.55 1016.99
1009.37 1009.70 1009.72 1009.97 1010.54 1010.86 1010.84 1010.99 1010.85 1010.78 1011.00 1011.32 1011.52 1011.87 1012.00 1012.27 1012.71 1013.01 1013.10 1013.30 1013.75 1014.12 1014.38 1014.51 1014.66 1014.82 1014.88 1014.95 1015.10 1015.22 1015.36 1015.72 1015.88 1016.00 1016.27 1016.06 1015.71 1015.58 1015.81 1016.34 1016.45 1016.40 1016.62
1010.05 1010.23 1010.32 1010.46 1010.51 1010.73 1010.94 1010.89 1010.65 1010.71 1010.77 1010.93 1011.03 1011.29 1011.46 1011.74 1012.05 1012.30 1012.35 1012.71 1013.66 1014.57 1014.47 1013.73 1013.60 1013.85 1014.14 1014.28 1014.43 1014.65 1014.91 1015.13 1015.34 1015.58 1015.85 1015.95 1015.61 1015.45 1015.39 1015.56 1016.01 1015.75 1016.01
1010.52 1010.90 1011.12 1010.94 1010.84 1010.97 1011.05 1011.07 1010.99 1010.90 1010.88 1011.05 1011.17 1011.23 1011.30 1011.21 1011.60 1011.66 1011.90 1012.37 1013.16 1012.34 1013.47 1012.53 1012.25 1012.50 1012.93 1013.40 1013.71 1013.78 1013.86 1014.31 1014.41 1014.68 1014.68 1015.15 1014.59 1014.62 1014.51 1014.69 1015.12 1015.62 1015.68
1011.28 1011.59 1011.68 1011.60 1011.60 1011.58 1011.42 1011.39 1011.35 1011.30 1011.25 1011.35 1011.47 1011.35 1011.29 1011.23 1011.39 1011.54 1011.99 1012.31 1012.44 1012.81 1012.54 1012.33 1011.75 1011.65 1012.14 1012.88 1013.09 1012.45 1013.58 1013.14 1013.18 1013.71 1013.94 1013.64 1013.44 1013.24 1013.71 1013.89 1014.05 1014.00 1013.82
1012.02 1012.24 1012.35 1012.39 1012.44 1012.40 1012.31 1012.19 1011.99 1011.73 1011.62 1011.48 1011.35 1011.23 1011.20 1011.19 1011.16 1011.54 1011.82 1011.97 1012.17 1012.25 1012.17 1012.16 1012.03 1011.58 1011.56 1012.07 1012.51 1012.80 1012.47 1012.42 1012.64 1012.67 1012.68 1012.29 1012.29 1012.22 1012.46 1012.70 1013.04 1013.27 1013.17
1012.71 1012.86 1012.91 1012.96 1013.03 1013.02 1012.91 1012.71 1012.47 1012.34 1012.18 1011.97 1011.65 1011.42 1011.35 1011.25 1011.28 1011.54 1011.68 1011.68 1011.76 1011.66 1011.47 1011.28 1011.24 1011.26 1011.26 1011.42 1011.69 1011.85 1011.66 1011.50 1011.47 1011.56 1011.33 1011.14 1011.32 1011.31 1011.32 1012.12 1012.43 1012.97 1012.88
1013.24 1013.23 1013.12 1013.19 1013.35 1013.31 1013.28 1013.15 1012.84 1012.66 1012.55 1012.27 1012.01 1011.63 1011.37 1011.30 1011.18 1011.11 1011.27 1011.44 1011.47 1011.33 1011.17 1011.03 1010.87 1010.75 1010.70 1010.71 1010.95 1011.01 1011.05 1010.82 1010.89 1010.91 1010.96 1011.02 1010.88 1010.49 1010.48 1010.95 1011.02 1011.65 1011.67
1013.25 1013.20 1013.20 1013.19 1013.26 1013.26 1013.21 1013.07 1012.96 1012.89 1012.74 1012.61 1012.40 1012.01 1011.76 1011.91 1011.74 1011.31 1011.16 1011.16 1011.19 1011.12 1011.11 1011.11 1011.07 1010.88 1011.03 1010.91 1010.95 1011.12 1010.90 1010.66 1010.48 1010.45 1010.31 1010.19 1010.11 1009.97 1009.97 1009.96 1010.03 1010.18 1010.64
1013.35 1013.38 1013.25 1013.12 1013.09 1013.04 1013.10 1013.04 1012.91 1012.95 1013.02 1013.12 1012.98 1012.76 1012.61 1012.50 1012.23 1011.97 1011.78 1011.76 1011.62 1011.57 1011.46 1011.28 1011.15 1010.88 1010.60 1010.43 1010.40 1010.18 1010.05 1010.15 1010.24 1010.17 1010.00 1009.69 1009.47 1009.00 1008.52 1008.36 1008.37 1008.67 1008.42
1013.51 1013.44 1013.26 1013.04 1013.03 1012.97 1013.03 1013.09 1013.14 1013.12 1013.22 1013.25 1013.15 1013.06 1012.96 1012.64 1012.45 1012.24 1012.13 1012.00 1011.84 1011.74 1011.46 1011.26 1010.99 1010.64 1010.20 1009.89 1009.61 1009.42 1009.31 1009.57 1009.67 1009.52 1009.02 1008.67 1008.41 1007.81 1007.46 1007.35 1007.20 1007.15 1007.36
1013.54 1013.49 1013.36 1013.32 1013.28 1013.27 1013.20 1013.20 1013.15 1013.28 1013.42 1013.48 1013.46 1013.37 1013.12 1012.94 1012.72 1012.45 1012.32 1012.17 1011.96 1011.75 1011.57 1011.35 1010.96 1010.46 1009.97 1009.64 1009.29 1008.68 1008.66 1008.60 1008.55 1008.31 1007.98 1007.62 1007.37 1007.03 1006.72 1006.31 1006.21 1006.50 1007.07
1013.75 1013.85 1013.82 1013.91 1013.91 1013.86 1013.88 1013.76 1013.66 1013.45 1013.32 1013.29 1013.27 1013.41 1013.42 1013.17 1012.69 1012.62 1012.58 1012.47 1012.49 1012.33 1011.98 1011.30 1010.72 1010.24 1009.81 1009.20 1008.61 1008.22 1007.94 1007.90 1007.80 1007.47 1007.28 1006.88 1006.47 1006.12 1005.81 1005.54 1005.25 1005.77 1005.97
1014.02 1014.13 1014.27 1014.33 1014.27 1014.21 1014.10 1013.83 1013.40 1013.32 1013.10 1013.35 1013.43 1013.49 1013.14 1013.10 1012.84 1012.47 1012.42 1012.15 1012.26 1012.10 1011.78 1011.39 1010.75 1010.14 1009.61 1009.01 1008.50 1008.04 1007.76 1007.56 1007.12 1006.59 1006.65 1006.31 1005.90 1005.71 1005.26 1004.95 1004.92 1004.94 1005.07
1014.22 1014.23 1014.47 1014.40 1014.40 1014.34 1014.23 1014.23 1014.34 1013.49 1013.34 1013.13 1013.09 1013.18 1013.41 1013.24 1012.95 1012.71 1012.29 1011.76 1011.60 1011.90 1011.75 1011.00 1010.43 1009.76 1009.28 1008.80 1008.53 1008.20 1007.93 1007.55 1006.94 1006.47 1005.98 1005.83 1005.45 1005.23 1004.97 1004.58 1004.23 1004.49 1004.35
1014.04 1014.09 1014.24 1014.31 1014.40 1014.34 1014.40 1014.31 1014.21 1014.11 1013.86 1013.87 1013.65 1013.67 1013.56 1013.06 1012.94 1012.73 1012.36 1011.96 1012.04 1011.98 1011.73 1011.24 1010.65 1010.09 1009.64 1009.13 1008.71 1008.27 1007.90 1007.44 1007.09 1006.79 1006.30 1005.81 1005.30 1004.79 1004.64 1004.25 1003.86 1003.56 1003.66
1013.95 1014.05 1014.20 1014.32 1014.39 1014.36 1014.34 1014.06 1013.98 1013.82 1013.82 1014.20 1014.16 1013.84 1013.53 1013.40 1013.28 1013.02 1012.74 1012.80 1012.77 1012.55 1012.37 1011.87 1011.26 1010.56 1009.99 1009.56 1009.14 1008.58 1008.00 1007.65 1007.22 1006.89 1006.49 1006.10 1005.64 1005.36 1004.73 1004.35 1004.10 1003.42 1002.91
1013.89 1013.85 1014.08 1014.34 1014.40 1014.39 1014.22 1014.07 1013.99 1013.84 1013.82 1014.18 1014.07 1013.94 1013.61 1013.43 1013.29 1013.20 1013.11 1013.05 1012.98 1012.86 1012.65 1012.30 1011.73 1011.14 1010.46 1009.98 1009.47 1009.07 1008.50 1008.03 1007.64 1007.18 1006.70 1006.23 1005.80 1005.38 1004.88 1004.25 1004.04 1003.78 1003.34
1013.96 1014.01 1013.96 1014.40 1014.37 1014.37 1014.30 1014.33 1014.13 1014.09 1014.13 1014.28 1014.01 1013.68 1013.19 1013.45 1013.40 1013.24 1013.18 1013.11 1013.00 1012.79 1012.61 1012.40 1012.03 1011.67 1011.24 1010.69 1010.15 1009.78 1009.37 1008.85 1008.28 1007.88 1007.21 1006.56 1005.98 1005.43 1004.85 1004.29 1003.65 1003.31 1003.04
1013.66 1013.96 1014.08 1014.21 1014.36 1014.37 1014.35 1014.34 1014.25 1014.24 1014.14 1014.04 1013.85 1013.53 1013.07 1013.08 1013.29 1013.21 1013.10 1012.85 1012.52 1012.30 1012.16 1011.98 1011.82 1011.56 1011.24 1010.88 1010.55 1010.27 1009.95 1009.58 1009.09 1008.49 1007.64 1006.67 1005.90 1005.36 1004.70 1004.04 1003.58 1003.19 1002.94
1013.37 1013.74 1013.98 1014.05 1014.25 1014.43 1014.34 1014.33 1014.35 1014.34 1014.23 1014.02 1013.83 1013.58 1013.31 1013.18 1013.10 1012.83 1012.62 1012.56 1012.30 1012.07 1011.80 1011.59 1011.42 1011.21 1010.95 1010.63 1010.37 1010.35 1010.16 1009.78 1009.42 1008.88 1008.09 1006.99 1006.10 1005.46 1004.69 1004.01 1003.41 1002.95 1002.66
1013.31 1013.43 1013.72 1013.90 1014.02 1014.15 1014.16 1014.22 1014.22 1014.17 1014.13 1014.09 1013.86 1013.68 1013.45 1013.21 1012.98 1012.77 1012.35 1012.05 1011.97 1011.76 1011.47 1011.13 1010.99 1010.78 1010.60 1010.47 1010.29 1010.16 1009.97 1009.92 1009.48 1008.75 1008.16 1007.37 1006.35 1005.27 1004.50 1003.79 1003.33 1002.68 1002.20
1013.19 1013.33 1013.64 1013.84 1013.92 1014.11 1014.16 1014.28 1014.36 1014.29 1014.29 1014.24 1014.05 1013.92 1013.61 1013.29 1012.81 1012.40 1011.96 1011.83 1011.78 1011.49 1011.32 1011.02 1010.76 1010.56 1010.30 1010.54 1010.44 1010.14 1009.86 1009.61 1009.13 1008.65 1007.96 1007.17 1006.21 1005.17 1004.22 1003.35 1002.72 1002.19 1001.92
1012.99 1013.29 1013.54 1013.73 1014.05 1014.26 1014.25 1014.24 1014.24 1014.26 1014.37 1014.37 1014.20 1013.91 1013.50 1013.10 1012.63 1012.28 1012.05 1011.82 1011.65 1011.31 1011.10 1010.99 1010.73 1010.66 1010.54 1010.44 1010.28 1009.93 1009.59 1009.19 1008.64 1008.15 1007.67 1006.85 1005.81 1004.77 1003.83 1003.21 1002.55 1001.84 1001.40
Wind_Speed
12 9 7 6 7 6 6 6 6 6 6 6 10 8 9 10 9 8 7 7 9 8 6 6 8 4 4 4 3 4 3 4 4 4 3 4 8 11 10 9 8 9 9
10 8 10 7 7 7 7 9 8 7 7 8 7 9 9 8 10 10 9 8 9 8 7 7 7 6 7 6 4 5 5 4 4 6 2 1 3 14 11 12 9 9 9
9 10 8 9 8 8 8 8 9 8 8 8 8 7 8 8 7 9 9 8 7 7 7 8 8 7 7 6 6 5 4 3 4 3 4 2 1 1 6 7 8 9 8
4 2 6 6 3 6 5 6 5 7 8 8 8 8 7 9 8 8 9 8 8 7 9 10 9 11 11 10 9 9 6 5 2 3 2 4 3 4 3 6 5 3 8
7 7 7 6 5 6 4 3 4 4 2 4 5 6 7 6 6 7 7 7 6 6 8 8 11 11 12 12 8 9 6 5 5 5 4 4 3 3 7 6 8 7 6
9 8 7 7 7 6 6 6 6 5 6 4 3 3 5 4 9 11 7 4 13 14 15 16 9 12 11 16 17 16 12 9 10 6 8 12 13 6 4 8 8 6 6
9 8 9 9 8 8 7 6 5 3 2 3 4 4 5 5 8 6 6 4 14 14 13 11 13 7 7 6 11 18 15 15 13 7 11 12 15 13 6 6 10 10 9
7 7 7 7 7 7 7 7 7 6 6 5 5 5 4 4 5 10 10 6 6 7 9 12 13 14 11 13 7 9 13 13 11 11 12 14 13 13 11 10 10 10 6
6 6 5 6 6 6 7 7 5 6 5 5 6 6 5 6 7 8 7 6 6 8 8 8 7 9 12 13 6 8 9 9 11 18 21 23 18 15 14 5 9 5 6
5 4 4 4 4 4 4 4 3 3 5 5 6 6 8 6 7 8 10 5 6 5 5 6 11 11 10 10 7 8 9 10 6 7 7 16 17 19 20 15 11 11 8
4 3 3 2 3 2 2 2 3 4 5 6 6 7 7 9 11 13 10 3 3 3 3 4 1 8 8 8 3 4 8 7 8 9 8 7 8 12 13 11 12 11 9
3 3 3 1 2 2 3 4 5 5 5 6 5 5 6 5 10 12 14 9 7 3 3 3 5 12 12 7 5 10 13 10 6 6 7 8 10 12 12 14 15 14 11
3 2 3 4 3 3 3 5 3 5 5 4 4 4 4 4 3 8 8 8 7 4 3 5 10 13 13 10 12 11 10 4 7 8 9 10 10 11 13 12 12 11 9
3 5 6 5 6 6 5 5 3 5 5 4 4 4 4 4 5 5 4 5 6 5 7 7 9 13 14 14 10 7 5 6 7 9 9 9 8 9 10 10 9 7 6
6 5 6 5 6 6 5 4 3 1 2 1 3 2 4 5 4 2 3 4 4 4 7 4 4 4 6 7 6 5 4 5 8 8 8 9 10 8 9 8 9 10 11
5 4 4 4 4 4 4 5 7 4 6 5 8 4 4 8 12 12 5 7 8 6 2 3 4 5 6 6 6 5 4 7 8 8 8 9 9 8 10 6 7 8 11
2 3 3 3 2 1 3 3 4 7 6 10 9 7 6 12 16 12 9 12 8 5 2 4 5 5 4 4 4 4 4 5 8 8 6 8 9 8 7 8 9 7 7
5 7 3 2 2 3 1 3 3 3 3 4 9 6 11 12 10 6 7 5 5 2 3 5 7 6 6 5 5 4 4 5 4 6 7 7 5 7 7 8 9 10 10
4 3 3 4 3 2 3 4 3 3 3 4 3 4 6 11 11 7 7 5 5 7 8 8 8 8 7 5 6 6 5 5 4 4 4 4 4 5 5 4 7 9 10
4 3 1 3 3 3 3 4 4 5 4 4 3 2 3 5 4 5 4 4 4 4 4 7 8 9 9 8 8 8 5 6 7 5 6 5 4 4 6 7 4 5 2
4 4 6 4 1 0 1 3 4 5 4 3 1 1 6 1 1 1 2 3 3 3 3 3 4 5 5 7 9 9 10 9 9 9 8 8 7 5 5 7 7 4 3
5 4 3 2 2 1 1 2 2 2 3 3 1 2 2 2 2 1 1 1 1 2 2 2 3 3 3 4 5 6 7 8 9 9 9 9 8 8 6 5 6 5 5
4 4 4 3 3 3 4 4 3 3 4 4 4 3 2 3 2 2 1 2 3 4 4 4 4 4 4 3 0 2 4 7 8 8 9 10 9 9 8 7 5 5 5
3 3 6 5 4 2 1 1 2 3 4 3 4 4 3 3 4 3 1 1 3 5 5 4 4 6 4 2 3 4 4 5 7 7 9 8 9 11 10 9 7 6 5
1 5 5 3 3 2 2 2 3 4 4 4 5 4 4 5 5 5 3 1 3 4 5 6 3 5 6 7 7 8 8 12 9 8 6 8 10 13 12 10 9 7 7
5 3 1 3 5 2 3 3 3 4 4 4 4 3 4 5 6 5 3 4 3 4 5 3 5 7 7 6 8 11 10 12 11 10 7 7 7 8 8 10 12 9 9
Wind_Direction
186 189 188 192 204 203 206 212 218 219 234 195 193 214 207 199 184 184 191 194 197 197 200 217 232 226 238 248 224 232 214 170 215 278 203 256 195 186 191 193 176 186 199
177 172 199 195 201 206 207 221 219 213 208 216 202 195 204 187 190 188 194 205 201 203 203 213 220 214 231 224 230 241 231 209 188 241 243 297 227 188 186 183 189 192 197
178 199 197 192 197 205 201 211 230 208 208 199 201 200 193 194 188 198 199 196 186 198 200 209 224 206 223 226 231 227 233 229 216 169 242 203 145 92 175 182 182 195 196
143 219 223 211 247 235 230 275 258 228 209 195 194 203 207 196 201 206 202 193 192 205 207 212 213 218 221 217 216 223 220 220 247 225 238 261 229 209 168 199 205 172 205
76 62 49 79 87 78 87 34 25 25 52 229 220 213 216 205 217 222 209 208 65 350 287 227 221 218 223 225 226 238 218 207 205 224 240 233 218 215 192 187 214 210 228
65 52 40 39 36 55 48 31 21 9 17 10 328 272 262 250 230 242 254 161 140 202 247 257 227 217 226 222 220 231 222 210 227 207 233 240 243 211 205 194 201 196 228
58 46 38 33 31 23 20 14 5 4 6 339 300 286 271 256 257 186 227 224 180 204 225 246 259 251 245 239 222 232 245 221 218 208 230 226 239 240 204 206 211 207 215
60 47 35 33 27 19 21 13 9 1 345 328 329 329 320 296 274 161 181 194 207 217 232 245 244 253 245 250 210 220 233 240 237 236 233 238 231 235 206 213 201 219 237
59 53 39 37 26 15 5 351 356 6 354 349 333 334 335 321 301 191 184 205 224 235 239 251 237 244 252 253 242 248 239 234 232 235 241 238 238 228 218 201 230 200 230
48 39 39 57 28 344 343 13 344 347 330 336 332 328 323 313 301 281 200 217 230 242 245 255 253 253 257 259 233 239 254 257 243 240 233 251 251 243 228 227 232 223 215
33 6 38 37 351 28 32 327 314 314 318 322 320 316 315 3 5 8 337 287 285 257 243 271 60 37 349 331 329 271 269 297 281 271 262 254 241 243 245 232 219 211 219
354 336 1 339 317 327 337 307 314 320 343 3 22 19 62 61 44 40 45 53 16 25 360 337 322 329 332 308 247 244 251 256 248 251 262 261 257 249 234 226 222 222 221
335 337 302 288 273 281 300 330 14 66 57 14 13 360 355 341 10 23 30 11 23 359 316 286 294 306 306 304 281 254 252 248 252 250 249 256 250 255 243 229 218 212 211
16 350 350 24 24 16 22 15 37 57 41 12 355 345 336 334 332 342 352 349 347 344 347 318 286 274 271 261 277 266 226 225 231 249 256 256 254 255 243 227 226 207 216
7 48 37 39 38 27 31 25 31 45 124 262 302 320 333 324 291 283 297 321 331 323 320 303 313 310 293 282 276 266 260 235 243 251 255 264 267 251 249 235 219 218 220
45 44 68 57 28 32 13 347 338 299 290 315 295 263 302 275 300 322 349 291 305 281 282 289 292 270 266 277 285 290 299 295 285 260 259 263 265 263 255 230 223 225 227
30 58 108 99 58 25 355 20 346 325 280 282 290 304 268 266 305 337 336 319 309 157 268 300 292 310 315 333 339 324 319 330 329 323 266 265 268 262 257 253 234 227 236
103 42 89 68 69 13 33 301 263 281 316 26 29 38 338 338 6 27 322 324 9 325 333 340 347 350 338 339 330 318 312 318 324 327 336 324 291 284 265 251 238 229 240
99 52 40 75 58 357 325 293 294 296 12 84 351 347 4 23 16 29 13 30 7 12 7 354 346 341 337 335 335 331 317 309 299 302 307 322 338 340 335 340 330 288 261
125 131 37 81 42 40 10 4 8 5 44 108 60 349 356 14 20 11 17 24 13 13 6 4 357 356 354 354 351 344 341 349 333 330 330 313 305 298 300 301 302 264 15
151 103 98 128 103 97 302 26 28 27 6 139 160 242 46 18 292 352 10 7 12 354 351 344 331 334 342 347 5 2 355 350 354 347 339 333 323 308 292 295 296 288 288
123 146 146 125 168 58 346 100 101 29 349 334 280 268 62 354 9 312 91 348 292 269 225 250 284 288 299 334 1 359 353 345 336 329 320 313 309 306 295 275 285 280 266
187 176 153 112 76 81 34 26 29 357 330 359 347 353 2 9 350 1 49 308 322 298 262 241 244 273 270 273 299 313 324 331 322 311 303 307 308 306 304 293 265 262 259
283 191 138 128 113 116 137 105 33 28 6 1 349 346 349 353 340 305 290 21 343 329 318 288 253 267 273 319 354 353 329 337 312 298 305 298 296 299 295 291 283 271 268
201 84 109 150 155 216 316 70 34 17 9 343 342 341 353 321 319 297 310 18 331 344 325 333 10 7 39 44 1 344 336 333 325 309 294 288 285 293 291 285 293 286 265
89 91 70 30 87 42 68 84 54 41 15 358 345 342 309 310 307 311 351 339 334 334 329 355 19 50 37 14 348 333 335 333 334 316 304 288 296 309 320 331 317 304 292